Location: Easthampton
(42.2676°N, 72.6690°W)
Time: 00:13:56
(UTC+00:00)

AO-91 - Pass Details

Date: 03 April 2023
Orbit: 446 x 775 km, 97.6° (Epoch: 28 May)

Event Time Altitude Azimuth Distance (km) Brightness Sun altitude
Rises 02:35:18 0° 18° (NNE) 3,239 ? -33.0°
Reaches altitude 10° 02:37:43 10° 25° (NNE) 2,327 ? -33.3°
Enters shadow 02:38:27 14° 28° (NNE) 2,066 ? -33.4°
